RH
92 88 76 89 98 92 91 86 82 81 73 74 71 70 70 63 56 52 34 25 12 20 18 10 18 19 24 28 35 36 51 57 34 27 24 26 28 31 33 33 34 33 32 33 37
87 71 83 92 96 99 94 89 86 88 80 74 72 72 73 69 59 39 23 17 18 22 13 15 18 21 23 28 33 43 43 31 30 20 24 28 27 30 31 36 38 38 36 35 38
32 34 59 65 99 100 100 100 96 99 92 79 77 73 74 71 56 22 18 22 25 23 15 22 23 24 25 28 34 42 38 35 23 23 24 25 29 31 36 38 34 38 37 38 40
30 30 29 58 84 97 99 94 92 99 98 87 83 83 76 73 63 41 33 31 29 18 19 23 24 24 30 33 30 37 35 28 26 25 28 28 29 35 37 31 28 30 33 37 39
28 28 32 35 39 78 97 84 98 100 100 92 88 82 78 73 61 48 34 32 24 19 20 23 26 26 26 26 25 36 30 27 27 29 30 30 36 36 38 30 34 34 39 39 39
29 29 29 28 32 47 58 74 91 94 99 97 89 99 97 69 54 41 35 29 22 20 20 26 28 30 34 35 32 34 35 34 31 30 31 38 39 38 33 31 40 39 40 40 39
37 33 30 29 30 27 55 82 84 81 100 85 82 99 88 69 55 43 31 26 30 35 27 30 36 36 39 44 43 42 49 54 52 48 50 39 48 53 37 38 41 43 43 44 43
37 35 31 28 26 30 28 28 62 64 66 75 95 98 71 56 43 31 29 29 34 37 37 42 46 46 44 44 59 49 54 74 58 39 47 40 67 43 38 45 46 46 47 49 46
41 41 33 27 27 26 28 19 25 42 50 78 98 75 56 36 40 39 29 28 38 36 39 49 47 50 49 68 78 80 90 84 70 44 52 42 53 36 51 49 50 48 49 53 50
49 44 35 30 31 28 28 47 66 66 80 86 72 64 54 50 47 30 30 34 35 51 48 51 46 63 60 77 74 67 95 69 77 44 57 60 67 56 49 57 57 55 58 54 54
49 51 41 38 60 76 69 71 84 80 73 62 57 58 66 61 59 44 36 32 29 45 72 58 67 69 55 62 58 66 64 58 49 47 41 52 59 51 51 55 67 62 66 53 36
47 52 47 78 95 84 77 85 84 80 84 70 73 70 77 63 36 35 34 26 40 50 52 59 75 56 48 50 60 67 58 51 34 33 36 44 46 55 59 56 57 69 39 28 24
48 49 47 83 90 84 73 72 83 85 92 76 61 47 34 32 23 26 29 25 29 31 38 42 35 41 39 31 45 43 41 38 35 38 36 50 68 86 68 56 46 42 36 30 26
56 51 47 65 88 85 82 81 70 76 88 70 45 30 20 20 24 25 46 29 27 33 28 34 25 26 28 29 34 37 34 38 40 46 69 46 91 60 69 72 39 41 38 30 26
64 57 52 54 89 85 79 77 79 95 67 37 27 28 22 34 57 57 46 31 41 40 34 50 26 27 30 28 24 32 36 38 40 56 73 72 86 68 72 71 59 41 36 29 42
71 63 57 66 81 83 70 73 86 84 85 57 44 50 65 65 70 63 40 38 36 41 41 44 29 26 28 31 31 35 46 57 63 83 95 83 84 73 86 71 43 46 34 37 59
83 69 65 68 78 84 81 86 85 93 57 84 76 64 60 62 62 64 77 80 68 77 86 62 36 32 30 35 38 54 71 88 70 97 86 86 88 81 62 50 70 67 51 42 69
94 77 70 78 80 84 91 79 93 57 77 66 62 62 70 52 63 55 52 70 66 68 91 90 80 39 34 48 56 38 70 78 67 79 57 66 82 56 46 46 43 45 46 58 76
100 83 72 78 89 91 85 87 79 72 73 65 61 74 81 59 69 82 70 66 60 80 92 97 88 37 35 33 28 46 59 55 60 82 84 57 45 43 43 45 32 48 44 65 83
98 86 77 83 87 89 86 84 78 76 76 67 78 87 73 74 70 85 89 70 66 72 90 95 96 47 42 38 38 40 47 74 87 69 62 41 50 52 42 37 49 71 64 72 90
91 83 87 95 85 99 83 83 87 83 73 80 87 82 78 88 95 92 92 90 85 86 78 96 95 71 49 54 50 45 72 56 60 86 67 71 42 72 49 61 69 82 61 81 95
90 97 90 92 88 98 94 79 74 76 66 93 84 84 94 99 96 96 95 90 90 88 88 65 94 99 70 52 46 45 51 64 79 62 92 84 54 72 74 76 91 74 70 89 98
77 80 90 92 99 96 78 74 60 69 79 98 98 94 100 98 97 91 93 90 94 93 96 79 93 95 81 75 54 48 43 79 85 81 75 63 41 56 74 81 52 72 79 94 94
81 97 86 80 87 87 94 92 95 93 97 94 97 94 99 97 100 97 91 88 89 96 99 99 97 96 96 95 84 71 72 61 80 69 75 70 48 41 48 72 69 65 84 96 98
86 82 72 99 92 89 90 81 69 92 99 91 99 98 98 100 94 94 80 92 94 95 98 98 98 95 90 94 97 93 93 84 69 54 54 65 73 64 75 73 80 71 91 94 94
100 88 76 77 78 90 90 89 72 88 98 99 96 99 97 95 95 98 98 98 98 98 98 98 91 96 92 84 96 95 85 95 86 57 56 75 58 56 73 67 58 73 94 97 97
91 88 61 92 96 91 94 84 78 83 95 82 89 94 97 90 99 99 99 98 100 98 97 96 96 96 93 94 96 92 79 79 82 81 59 58 49 60 59 45 66 76 97 98 97
Wind_Speed
21 21 20 18 20 18 16 17 18 18 18 19 19 20 22 24 25 25 4 0 3 10 11 7 3 5 4 2 3 3 2 3 4 4 3 1 1 0 1 2 4 6 4 5 22
21 22 19 17 19 21 18 18 19 18 18 19 19 20 22 24 25 11 1 1 7 10 9 5 2 2 3 2 4 3 3 7 4 2 2 2 1 3 2 2 4 3 5 9 22
23 22 20 16 20 21 20 19 18 18 19 19 20 20 21 23 18 1 2 5 9 9 5 4 3 1 2 3 6 5 5 4 3 3 3 2 3 4 4 5 10 12 17 17 20
20 20 20 20 19 16 21 21 20 19 18 19 20 20 20 19 4 4 7 8 7 6 5 4 2 1 2 3 3 2 9 7 5 4 3 3 2 2 10 8 5 11 15 19 19
20 20 19 20 21 22 24 23 17 20 18 18 19 21 20 11 10 7 6 8 5 6 6 4 2 2 2 2 5 4 3 5 5 6 8 9 8 8 11 14 14 8 17 17 16
21 21 21 20 21 20 19 17 17 15 17 19 22 20 17 5 8 6 6 8 4 6 5 4 1 2 4 3 2 3 6 11 10 11 9 6 5 7 7 11 14 14 16 15 14
23 22 21 21 21 20 20 19 17 16 16 23 22 17 15 15 7 6 7 5 6 7 6 4 4 3 1 4 3 5 6 7 5 4 4 2 5 8 17 8 15 17 15 12 11
24 25 24 23 21 20 19 19 21 21 21 18 15 13 8 8 7 5 6 6 10 9 6 7 7 5 4 5 5 3 2 4 3 1 0 3 7 6 5 12 14 15 14 13 12
23 25 25 23 21 18 16 16 15 15 15 13 10 6 6 2 4 6 5 8 11 8 6 4 3 0 0 2 3 3 3 4 7 1 1 3 6 3 2 10 13 15 13 11 12
24 23 24 21 18 15 13 10 10 9 7 4 5 3 3 3 7 6 7 7 3 0 3 2 2 2 2 3 3 3 3 4 6 2 2 5 14 10 10 11 16 13 10 11 12
23 23 21 19 13 12 8 1 2 1 2 3 2 5 12 9 10 9 5 4 3 2 3 0 2 5 8 7 2 2 3 6 5 5 4 7 10 14 8 13 13 15 9 7 10
21 22 20 12 10 8 9 4 4 1 6 6 9 8 9 7 5 6 5 2 3 3 3 2 7 8 4 3 4 5 4 7 6 2 1 7 12 9 3 3 8 13 4 7 16
20 21 19 10 8 5 4 6 6 5 3 4 1 1 1 4 4 2 3 2 4 3 6 7 4 3 5 3 3 3 5 4 5 6 4 5 7 3 2 7 10 7 4 11 18
19 19 18 9 6 7 2 5 3 2 3 4 1 1 1 2 3 3 2 2 2 3 3 5 3 3 3 3 5 4 2 0 3 5 3 3 5 3 2 1 3 3 8 15 21
18 17 15 9 7 5 3 4 1 3 4 2 2 1 3 3 6 2 3 1 3 3 2 4 2 2 3 3 4 4 0 1 1 3 3 1 2 5 1 4 5 6 14 20 24
17 16 13 8 6 6 2 2 1 6 5 2 2 2 2 1 1 1 1 2 3 3 3 6 3 2 2 2 1 1 1 4 2 2 2 4 4 3 3 4 4 4 16 22 27
17 16 12 8 5 5 3 1 3 3 3 4 2 1 2 3 2 2 2 4 1 5 5 4 2 1 2 1 1 3 4 3 5 2 4 3 2 6 3 5 5 6 18 24 27
17 16 13 9 7 9 3 4 5 5 3 1 2 1 2 3 1 3 1 0 4 2 2 1 4 2 1 1 2 1 4 4 4 2 4 3 5 4 3 5 3 10 18 24 28
17 16 14 10 7 7 6 3 7 6 2 2 4 1 1 2 1 5 1 1 3 2 3 1 4 1 2 2 1 2 1 2 1 2 1 3 3 2 3 7 6 16 22 27 30
15 13 16 11 10 6 3 5 4 1 2 4 5 2 1 2 4 4 3 1 2 3 3 0 4 1 1 2 1 2 3 2 2 2 4 3 3 3 4 6 8 9 20 27 29
13 5 6 7 8 6 4 5 2 2 2 1 2 2 1 2 1 1 2 2 2 2 0 3 1 3 1 4 5 1 2 1 1 2 3 2 4 5 6 3 7 9 19 24 27
10 1 6 7 2 0 3 4 3 2 2 1 2 1 1 1 1 2 3 3 4 2 4 3 3 4 6 1 1 1 3 2 3 4 1 2 5 2 3 3 5 15 19 22 22
7 5 7 8 2 2 2 2 2 3 2 1 2 2 2 1 2 4 2 4 3 1 3 2 2 4 5 4 2 4 4 4 5 2 5 4 5 2 3 5 6 12 19 22 23
7 2 5 6 3 6 4 4 3 2 2 3 2 3 2 2 4 3 2 2 4 4 5 4 2 4 3 2 2 2 2 4 5 2 3 5 7 5 5 5 7 15 18 20 23
15 6 7 3 3 3 3 3 7 4 1 2 1 2 2 1 1 3 1 1 5 2 2 3 3 3 8 12 10 8 7 5 7 6 5 4 6 5 3 5 5 12 17 21 25
5 5 6 6 11 5 1 3 5 1 4 3 2 4 3 2 2 3 3 2 1 1 2 1 3 3 4 3 7 9 10 10 11 8 8 1 10 4 3 3 7 13 17 20 23
24 8 13 9 3 5 5 5 7 5 2 2 4 3 3 2 0 4 5 8 5 1 3 3 2 2 4 4 5 5 6 9 5 3 6 5 4 4 1 1 6 12 14 17 20
Wind_Direction
316 317 318 317 315 316 317 324 327 330 329 327 327 328 328 325 327 329 314 232 312 331 331 326 296 235 232 201 186 154 74 236 252 198 267 329 137 16 165 157 172 197 206 223 181
306 305 303 302 303 304 305 308 310 314 317 318 322 323 325 325 327 326 160 307 323 326 330 329 210 207 209 203 188 128 158 221 220 215 241 301 244 193 197 218 206 179 183 172 179
307 305 301 300 295 300 297 304 309 303 310 312 317 320 326 328 328 141 336 318 319 326 323 314 311 314 229 204 195 176 215 220 269 240 226 234 272 209 170 242 221 213 185 179 186
312 309 303 290 284 292 288 299 303 297 302 310 316 319 326 328 324 314 312 321 324 319 304 303 301 249 239 225 211 237 244 237 281 251 211 236 230 254 216 235 271 241 224 198 198
319 315 308 299 289 278 279 290 303 302 295 305 316 317 328 314 289 296 302 325 318 313 284 282 276 217 252 298 311 221 273 282 275 291 255 260 233 228 245 256 260 221 198 206 209
321 317 315 310 301 294 292 288 278 290 300 304 311 315 320 291 282 278 300 323 312 318 289 276 242 280 265 248 207 315 287 280 284 265 248 219 243 198 243 243 220 196 195 202 217
327 323 317 311 308 301 289 285 286 284 284 295 301 305 298 281 277 276 317 311 310 311 289 276 296 291 296 296 310 282 304 311 250 282 253 217 268 233 245 228 209 205 209 214 229
327 324 323 318 311 302 297 286 278 282 285 286 289 298 264 279 281 284 298 293 307 294 287 299 302 286 224 297 330 286 31 343 271 25 74 120 280 270 263 210 204 211 214 223 229
330 328 326 322 318 310 300 298 284 281 282 278 279 260 264 285 294 292 276 283 300 261 275 288 314 197 80 78 351 347 259 241 308 174 110 169 280 293 193 195 212 215 223 225 229
329 330 330 326 323 319 313 308 287 278 271 255 213 236 259 309 305 275 271 281 287 251 206 258 32 60 38 94 237 231 255 265 245 261 222 243 257 258 245 218 229 230 231 229 250
327 331 333 329 333 337 336 324 2 95 244 232 173 286 292 287 286 274 248 270 239 177 183 123 47 226 218 207 213 208 216 252 262 261 247 249 266 272 250 243 235 240 213 246 287
324 329 332 333 343 0 23 43 41 357 310 288 300 272 265 270 267 248 231 239 181 204 144 9 242 238 245 195 210 221 268 274 281 268 223 285 273 280 277 263 236 168 156 331 321
321 324 330 316 317 328 357 32 9 357 285 308 302 241 252 273 263 260 229 274 213 223 198 195 224 77 186 209 220 236 214 245 250 329 263 300 291 341 13 91 116 118 35 344 329
316 322 326 311 288 305 346 16 356 40 9 283 300 267 229 269 271 238 261 261 268 260 276 227 265 188 210 248 160 269 192 222 321 10 256 28 285 301 188 292 182 190 346 334 332
311 317 323 318 290 291 306 13 109 117 7 183 181 205 237 215 312 24 193 194 245 267 56 271 207 214 232 223 172 240 264 259 205 217 2 212 87 269 79 286 248 248 324 335 335
303 309 315 307 276 274 247 320 206 46 258 208 165 208 15 183 258 319 275 261 269 274 224 240 284 181 183 99 89 357 327 43 53 116 359 232 149 264 202 216 283 297 330 337 335
293 298 300 288 246 253 275 206 18 175 319 179 148 76 39 297 312 170 59 1 17 22 0 318 220 88 119 61 44 74 49 331 349 358 236 214 141 252 237 219 221 280 333 338 340
283 288 285 274 247 218 221 58 217 237 214 239 113 0 210 0 272 333 173 289 46 81 30 19 321 171 75 182 194 170 143 154 249 285 289 180 237 265 233 209 257 345 338 342 344
280 285 275 252 229 213 177 185 211 211 257 71 37 61 218 143 122 10 67 81 56 44 158 286 268 50 35 97 133 210 188 173 103 233 351 229 277 330 242 272 309 336 348 343 345
274 286 269 239 222 189 150 237 218 333 352 72 179 163 246 316 4 26 358 353 92 74 168 208 301 162 150 107 22 171 160 57 7 301 285 288 279 243 277 288 318 331 335 341 345
254 256 233 223 207 180 215 227 169 40 121 79 167 170 193 299 303 286 297 122 126 222 282 113 114 280 15 207 184 99 318 237 106 156 193 305 277 218 221 239 285 307 332 340 347
235 215 196 196 170 8 157 208 147 169 83 123 126 69 124 49 300 272 235 218 166 121 161 182 163 265 231 341 328 271 205 149 145 264 102 144 276 268 212 238 261 309 338 346 355
217 223 196 192 174 233 298 252 175 188 186 112 107 122 101 94 270 257 296 99 118 221 179 162 226 312 336 5 353 237 201 135 97 78 216 139 264 234 90 318 330 317 346 353 1
211 185 182 210 204 145 169 220 117 40 88 99 103 91 131 206 200 279 261 160 193 212 229 180 215 233 243 221 130 251 204 166 149 146 190 231 291 295 37 298 331 342 358 358 7
217 216 182 176 212 148 160 196 179 179 69 128 123 202 151 180 296 230 253 319 199 268 217 166 245 225 262 261 244 245 243 181 186 210 183 246 223 272 246 262 306 350 1 9 11
238 155 163 162 153 121 128 199 182 136 154 184 175 145 148 158 191 293 350 214 319 45 183 204 272 276 274 271 259 252 241 229 214 239 257 243 290 151 193 290 347 11 5 10 10
237 206 166 164 133 133 187 173 189 144 221 158 149 120 211 254 284 290 276 273 266 277 216 184 253 299 265 331 298 272 229 201 194 207 160 192 236 154 182 85 0 6 7 6 10